Weather History for LHBP - January, 2013

Change the Weather History Date:

Tuesday, January 1, 2013

  Actual Average Record
Temperature  
Mean Temperature 25 °F -  
Max Temperature 26 °F 35 °F 48 °F (2007)
Min Temperature 24 °F 22 °F 5 °F (1997)
Degree Days  
Heating Degree Days 40    
Moisture  
Dew Point 26 °F    
Average Humidity 99    
Maximum Humidity 100    
Minimum Humidity 93    
Precipitation  
Precipitation 0.00 in - - ()
Sea Level Pressure  
Sea Level Pressure 30.10 in    
Wind  
Wind Speed 5 mph ()    
Max Wind Speed 7 mph    
Max Gust Speed -    
Visibility 1.0 miles    
Events Fog    
Averages and records for this station are not official NWS values.
T = Trace of Precipitation, MM = Missing Value Source: Averaged Metar Reports

Daily Weather History Graph

Daily Weather History Graph

Search for Another Location

Airport or City:

Trip Planner

Search our weather history database for the weather conditions in past years. The results will help you decide how hot, cold, wet, or windy it might be!

Date:

Astronomy

Jan. 01, 2013 Rise Set
Actual Time 7:30 AM CET 4:02 PM CET
Civil Twilight 6:54 AM CET 4:38 PM CET
Nautical Twilight 6:15 AM CET 5:17 PM CET
Astronomical Twilight 5:38 AM CET 5:54 PM CET
Moon 8:34 PM CET (1/1) 9:16 AM CET (1/1)
Length of Visible Light 9h 43m
Length of Day
8h 32m
Waning Gibbous, 85% of the Moon is Illuminated
Jan 1
Waning Gibbous
Jan 5
Last Quarter
Jan 11
New
Jan 19
First Quarter
Jan 27
Full

Hourly Weather History & Observations

Time (CET) Temp. Windchill Dew Point Humidity Pressure Visibility Wind Dir Wind Speed Gust Speed Precip Events Conditions
12:00 AM 26.6 °F 20.0 °F 26.6 °F 100% 30.21 in 0.7 mi East 5.8 mph - N/A   Overcast
12:30 AM 26.6 °F 20.0 °F 26.6 °F 100% 30.21 in 0.4 mi East 5.8 mph - N/A Fog Light Freezing Fog
1:00 AM 26.6 °F 19.1 °F 26.6 °F 100% 30.21 in 0.4 mi East 6.9 mph - N/A Fog Light Freezing Fog
1:30 AM 24.8 °F 16.9 °F 24.8 °F 100% 30.18 in 0.6 mi East 6.9 mph - N/A Fog Light Freezing Fog
2:00 AM 26.6 °F 21.2 °F 26.6 °F 100% 30.18 in 0.6 mi East 4.6 mph - N/A   Overcast
2:30 AM 26.6 °F 20.0 °F 26.6 °F 100% 30.18 in 0.6 mi East 5.8 mph - N/A   Overcast
3:00 AM 26.6 °F 19.1 °F 26.6 °F 100% 30.18 in 0.6 mi East 6.9 mph - N/A Fog Light Freezing Fog
3:30 AM 26.6 °F 21.2 °F 26.6 °F 100% 30.15 in 0.6 mi East 4.6 mph - N/A Fog Light Freezing Fog
4:00 AM 26.6 °F 20.0 °F 26.6 °F 100% 30.15 in 0.7 mi East 5.8 mph - N/A   Overcast
4:30 AM 26.6 °F 20.0 °F 26.6 °F 100% 30.15 in 0.7 mi East 5.8 mph - N/A   Overcast
5:00 AM 26.6 °F 20.0 °F 26.6 °F 100% 30.12 in 0.7 mi East 5.8 mph - N/A   Overcast
5:30 AM 24.8 °F 16.9 °F 24.8 °F 100% 30.12 in 0.7 mi East 6.9 mph - N/A   Overcast
6:00 AM 26.6 °F 21.2 °F 26.6 °F 100% 30.12 in 0.6 mi East 4.6 mph - N/A   Overcast
6:30 AM 24.8 °F 16.9 °F 24.8 °F 100% 30.12 in 0.5 mi East 6.9 mph - N/A Fog Light Freezing Fog
7:00 AM 24.8 °F 19.1 °F 24.8 °F 100% 30.12 in 0.4 mi East 4.6 mph - N/A Fog Light Freezing Fog
7:30 AM 24.8 °F 19.1 °F 24.8 °F 100% 30.12 in 0.5 mi East 4.6 mph - N/A Fog Light Freezing Fog
8:00 AM 24.8 °F 16.9 °F 24.8 °F 100% 30.12 in 0.6 mi East 6.9 mph - N/A Fog Light Freezing Fog
8:30 AM 24.8 °F 17.9 °F 24.8 °F 100% 30.12 in 0.7 mi East 5.8 mph - N/A   Mostly Cloudy
9:00 AM 24.8 °F 17.9 °F 24.8 °F 100% 30.12 in 0.7 mi East 5.8 mph - N/A   Mostly Cloudy
9:30 AM 24.8 °F 19.1 °F 24.8 °F 100% 30.12 in 1.2 mi East 4.6 mph - N/A   Mostly Cloudy
10:00 AM 24.8 °F 19.1 °F 23.0 °F 93% 30.12 in 1.2 mi East 4.6 mph - N/A   Mostly Cloudy
10:30 AM 24.8 °F 17.9 °F 24.8 °F 100% 30.12 in 1.9 mi East 5.8 mph - N/A   Mostly Cloudy
11:00 AM 24.8 °F 19.1 °F 24.8 °F 100% 30.12 in 1.2 mi East 4.6 mph - N/A   Overcast
11:30 AM 24.8 °F 17.9 °F 24.8 °F 100% 30.09 in 1.2 mi East 5.8 mph - N/A   Overcast
12:00 PM 24.8 °F 19.1 °F 24.8 °F 100% 30.09 in 2.2 mi East 4.6 mph - N/A   Overcast
12:30 PM 24.8 °F 17.9 °F 24.8 °F 100% 30.09 in 2.2 mi East 5.8 mph - N/A   Overcast
1:00 PM 24.8 °F 16.9 °F 24.8 °F 100% 30.09 in 2.5 mi East 6.9 mph - N/A   Overcast
1:30 PM 24.8 °F 17.9 °F 24.8 °F 100% 30.06 in 2.2 mi East 5.8 mph - N/A   Overcast
2:00 PM 24.8 °F 19.1 °F 24.8 °F 100% 30.06 in 1.9 mi East 4.6 mph - N/A   Overcast
2:30 PM 24.8 °F 16.9 °F 24.8 °F 100% 30.06 in 1.6 mi East 6.9 mph - N/A   Overcast
3:00 PM 24.8 °F 17.9 °F 24.8 °F 100% 30.06 in 1.2 mi ESE 5.8 mph - N/A   Overcast
3:30 PM 26.6 °F 21.2 °F 24.8 °F 93% 30.06 in 1.2 mi ESE 4.6 mph - N/A   Overcast
4:00 PM 26.6 °F 21.2 °F 24.8 °F 93% 30.06 in 1.2 mi ESE 4.6 mph - N/A   Overcast
4:30 PM 26.6 °F 21.2 °F 26.6 °F 100% 30.06 in 1.2 mi ESE 4.6 mph - N/A   Overcast
5:00 PM 26.6 °F 21.2 °F 26.6 °F 100% 30.06 in 1.2 mi ESE 4.6 mph - N/A   Mostly Cloudy
5:30 PM 26.6 °F 22.6 °F 26.6 °F 100% 30.06 in 1.2 mi Variable 3.5 mph - N/A   Overcast
6:00 PM 26.6 °F 21.2 °F 26.6 °F 100% 30.06 in 1.2 mi ESE 4.6 mph - N/A   Overcast
6:30 PM 26.6 °F 22.6 °F 26.6 °F 100% 30.06 in 1.1 mi Variable 3.5 mph - N/A   Overcast
7:00 PM 26.6 °F 21.2 °F 26.6 °F 100% 30.06 in 0.9 mi ESE 4.6 mph - N/A   Overcast
7:30 PM 26.6 °F 22.6 °F 26.6 °F 100% 30.06 in 0.9 mi Variable 3.5 mph - N/A   Overcast
8:00 PM 26.6 °F 22.6 °F 24.8 °F 93% 30.06 in 0.9 mi Variable 3.5 mph - N/A   Overcast
8:30 PM 26.6 °F 22.6 °F 26.6 °F 100% 30.06 in 0.9 mi Variable 3.5 mph - N/A   Overcast
9:00 PM 26.6 °F 21.2 °F 26.6 °F 100% 30.06 in 0.6 mi ESE 4.6 mph - N/A   Overcast
9:30 PM 26.6 °F 21.2 °F 26.6 °F 100% 30.06 in 0.6 mi SE 4.6 mph - N/A   Overcast
10:00 PM 26.6 °F 22.6 °F 26.6 °F 100% 30.06 in 0.5 mi Variable 3.5 mph - N/A   Overcast
10:30 PM 26.6 °F 22.6 °F 26.6 °F 100% 30.06 in 0.5 mi Variable 3.5 mph - N/A   Overcast
11:00 PM 26.6 °F 22.6 °F 26.6 °F 100% 30.06 in 0.6 mi Variable 3.5 mph - N/A   Overcast
11:30 PM 26.6 °F 22.6 °F 26.6 °F 100% 30.06 in 0.6 mi Variable 3.5 mph - N/A   Overcast